Погода в Малинове

Россия / Орловская область     52°46′00″N   37°51′36″E
темп.,
°C
ветер,
м/с
пор.,
м/с
влажн.,
%
обл.,
%
осадки,
мм/ч
давл.,
гПа
погр.,
м
14 августа, вс
вс1400:00+20всв3474100 0.0 102077
03:00+20вюв2366100 0.0 101978
06:00+20ссв1170100 0.1 101918
09:00+20св2478100 0.6 1020130
12:00+21всв477499 0.4 1019247
15:00+25в5753100 0.4 1018848
18:00+23всв485935 0.0 1018393
21:00+19всв496310 0.0 1018156
15 августа, пн
пн1500:00+19св410686 0.0 1017177
03:00+18всв49665 0.0 1017146
06:00+17в4106810 0.0 1017195
09:00+23в585390 0.0 1017413
12:00+28в783729 0.0 10171337
15:00+30в783410 0.0 10161760
18:00+28в6104270 0.0 1015479
21:00+24всв6145098 0.0 1016319
16 августа, вт
вт1600:00+23в7164856 0.0 1016495
03:00+21в7155068 0.0 1017445
06:00+20в7154699 0.0 1017387
09:00+23в71440100 0.0 1017496
12:00+27вюв793197 0.0 10171122
15:00+29в793085 0.0 10161288
18:00+27в593691 0.0 1016444
21:00+23всв51142100 0.0 1016196
17 августа, ср
ср1700:00+22вюв3948100 0.0 1016184
03:00+21всв355692 0.0 101585
06:00+21всв3551100 0.0 1016102
09:00+22св61155100 0.1 1015352
12:00+28всв793687 0.0 1015851
15:00+28в7103370 0.0 10141091
18:00+27всв81433100 0.0 1013656
21:00+25всв8163498 0.0 1013667
18 августа, чт
чт1800:00+22всв71642100 0.1 1014435
03:00+21всв61448100 0.1 1013307
06:00+20всв71551100 0.0 1012322
09:00+22всв61547100 0.1 1013550
12:00+28всв81034100 0.0 1012947
15:00+27всв71137100 0.0 1012784
18:00+26всв5104399 0.0 1012462
21:00+24св6134299 0.0 1011410